User: anonymous   Login
Location: Unspecified
(0.0000°N, 0.0000°E)
Time: 02:51:24
(UTC+00:00)
Language:

Envisat - Orbit

View from above orbital plane
View from above orbital plane
View from above satellite
View from above satellite

Ground track
Ground track

The orbit data is extracted from the following two-line orbital elements,

1 27386U 02009A   17202.55320853 -.00000021 +00000-0 +68706-5 0  9996
2 27386 098.2284 246.3925 0001213 093.2078 266.9251 14.37899119806016
Epoch (UTC): 21 July 2017 13:16:37
Eccentricity: 0.0001213
inclination: 98.2284°
perigee height: 764 km
apogee height: 766 km
right ascension of ascending node: 246.3925°
argument of perigee: 93.2078°
revolutions per day: 14.37899119
mean anomaly at epoch: 266.9251°
orbit number at epoch: 80601

The dashed part of the orbit path shows where the satellite is in the earth's shadow,  

DLR